Regional Weather Roundup
Issued by NWS Nashville, TN

Home | Current Version | Previous Version | Text Only | Print | Product List | Glossary On
Versions: 1 2 3 4 5 6 7 8 9 10 11 12 13 14 15 16 17 18 19 20 21 22 23 24 25 26 27 28 29 30 31 32 33 34 35 36 37 38 39 40 41 42 43 44 45 46 47 48 49 50
000
ASUS44 KOHX 272300
RWROHX
MIDDLE TENNESSEE HOURLY WEATHER ROUNDUP
NATIONAL WEATHER SERVICE NASHVILLE TN
500 PM CST TUE JAN 27 2015

NOTE: "FAIR" INDICATES FEW OR NO CLOUDS BELOW 12,000 FEET WITH
NO SIGNIFICANT WEATHER AND/OR OBSTRUCTIONS TO VISIBILITY.

* THESE REPORTS ARE NOT UNDER NWS QUALITY CONTROL AND MAY NOT
  REPORT WEATHER SUCH AS PRECIPITATION AND FOG.


TNZ005>011-023>034-057-059-062>066-078-080-280000
...NORTHERN MIDDLE TENNESSEE...

CITY           SKY/WX    TMP DP  RH WIND       PRES   REMARKS
CLARKSVILLE    CLOUDY    37  30  75 NW9       30.17R WCI  30
CROSSVILLE     CLOUDY    32  27  81 NW6       30.06R WCI  26
NASHVILLE      CLOUDY    39  30  70 N10       30.15R WCI  32
SPARTA         CLOUDY    36  30  80 N6        30.10R WCI  31
$$
TNZ056-058-060-061-075>077-079-093>097-280000
...SOUTHERN MIDDLE TENNESSEE...

CITY           SKY/WX    TMP DP  RH WIND       PRES   REMARKS
COLUMBIA       MOCLDY    43  36  75 N8        30.09R
MCMINNVILLE    CLOUDY    36  30  80 N6        30.11R WCI  31
SHELBYVILLE    CLOUDY    37  32  81 N12       30.12R WCI  30
TULLAHOMA      CLOUDY    36  28  75 N9        30.10R WCI  29
WINCHESTER     CLOUDY    37  30  75 N7        30.10R WCI  32
$$


...KEY TO REMARKS...
VSB - VISIBILITY IN MILES
WCI - WIND CHILL INDEX
HX  - HEAT INDEX



USA.gov is the U.S. government's official web portal to all federal, state and local government web resources and services.